Time,TemperatureF,DewpointF,PressureIn,WindDirection,WindDirectionDegrees,WindSpeedMPH,WindSpeedGustMPH,Humidity,HourlyPrecipIn,Conditions,Clouds,dailyrainin,SoftwareType,DateUTC
2013-01-02 00:00:00,20.4,10.9,30.00,NNW,329,3.0,8.0,66,0.00,,OVC033,0.00,VWS V14.01,2013-01-02 05:00:00,
2013-01-02 00:03:00,20.4,11.2,30.00,North,357,1.0,6.0,67,0.00,,OVC035,0.00,VWS V14.01,2013-01-02 05:03:00,
2013-01-02 00:08:00,20.3,11.1,30.00,NNW,344,4.0,6.0,67,0.00,,OVC035,0.00,VWS V14.01,2013-01-02 05:08:00,
2013-01-02 00:13:00,20.2,11.4,30.00,WNW,303,4.0,5.0,68,0.00,,OVC035,0.00,VWS V14.01,2013-01-02 05:13:00,
2013-01-02 00:18:00,20.1,11.6,30.00,NNW,347,8.0,8.0,69,0.00,,OVC035,0.00,VWS V14.01,2013-01-02 05:18:00,
2013-01-02 00:23:00,20.0,11.1,30.00,NNW,329,5.0,6.0,68,0.00,,OVC035,0.00,VWS V14.01,2013-01-02 05:23:00,
2013-01-02 00:28:00,20.0,11.1,29.99,WNW,300,4.0,7.0,68,0.00,,OVC035,0.00,VWS V14.01,2013-01-02 05:28:00,
2013-01-02 00:33:00,19.9,11.1,29.99,NNW,329,5.0,7.0,68,0.00,,OVC035,0.00,VWS V14.01,2013-01-02 05:33:00,
2013-01-02 00:38:00,19.9,11.1,29.99,NW,312,7.0,9.0,68,0.00,,OVC035,0.00,VWS V14.01,2013-01-02 05:38:00,
2013-01-02 00:43:00,19.8,11.3,29.99,NW,322,9.0,9.0,69,0.00,,OVC035,0.00,VWS V14.01,2013-01-02 05:43:00,
2013-01-02 00:48:00,19.8,11.0,30.00,NW,308,2.0,7.0,68,0.00,,OVC035,0.00,VWS V14.01,2013-01-02 05:48:00,
2013-01-02 00:53:00,19.8,11.3,29.99,NW,304,4.0,16.0,69,0.00,,OVC035,0.00,VWS V14.01,2013-01-02 05:53:00,
2013-01-02 00:58:00,19.8,11.3,29.99,NNW,341,5.0,8.0,69,0.00,,OVC035,0.00,VWS V14.01,2013-01-02 05:58:00,
2013-01-02 01:03:00,19.8,11.3,29.99,NW,306,6.0,9.0,69,0.00,,CLR,0.00,VWS V14.01,2013-01-02 06:03:00,
2013-01-02 01:08:00,19.9,11.1,29.99,NNW,337,6.0,10.0,68,0.00,,CLR,0.00,VWS V14.01,2013-01-02 06:08:00,
2013-01-02 01:13:00,19.8,11.3,29.99,NW,309,7.0,9.0,69,0.00,,CLR,0.00,VWS V14.01,2013-01-02 06:13:00,
2013-01-02 01:18:00,19.7,11.2,29.99,WNW,298,5.0,7.0,69,0.00,,CLR,0.00,VWS V14.01,2013-01-02 06:18:00,
2013-01-02 01:23:00,19.7,11.5,29.99,NW,326,3.0,4.0,70,0.00,,CLR,0.00,VWS V14.01,2013-01-02 06:23:00,
2013-01-02 01:28:00,19.6,11.4,29.99,NNW,328,5.0,10.0,70,0.00,,CLR,0.00,VWS V14.01,2013-01-02 06:28:00,
2013-01-02 01:33:00,19.5,11.6,29.99,NNW,329,6.0,8.0,71,0.00,,CLR,0.00,VWS V14.01,2013-01-02 06:33:00,
2013-01-02 01:38:00,19.4,11.9,29.99,NW,305,2.0,4.0,72,0.00,,CLR,0.00,VWS V14.01,2013-01-02 06:38:00,
2013-01-02 01:43:00,19.3,11.8,29.99,WNW,285,1.0,8.0,72,0.00,,CLR,0.00,VWS V14.01,2013-01-02 06:43:00,
2013-01-02 01:48:00,19.2,11.7,29.99,NW,325,5.0,5.0,72,0.00,,CLR,0.00,VWS V14.01,2013-01-02 06:48:00,
2013-01-02 01:53:00,19.1,11.9,29.99,WNW,295,2.0,2.0,73,0.00,,CLR,0.00,VWS V14.01,2013-01-02 06:53:00,
2013-01-02 01:58:00,18.9,11.7,29.99,NW,308,1.0,2.0,73,0.00,,CLR,0.00,VWS V14.01,2013-01-02 06:58:00,
2013-01-02 02:03:00,18.8,11.9,29.99,WNW,300,0.0,1.0,74,0.00,,CLR,0.00,VWS V14.01,2013-01-02 07:03:00,
2013-01-02 02:08:00,18.5,11.9,29.99,WSW,256,2.0,2.0,75,0.00,,CLR,0.00,VWS V14.01,2013-01-02 07:08:00,
2013-01-02 02:13:00,18.3,11.7,29.99,WSW,256,1.0,3.0,75,0.00,,CLR,0.00,VWS V14.01,2013-01-02 07:13:00,
2013-01-02 02:18:00,18.2,11.6,29.99,WSW,240,2.0,2.0,75,0.00,,CLR,0.00,VWS V14.01,2013-01-02 07:18:00,
2013-01-02 02:23:00,18.0,11.4,29.99,WSW,257,1.0,4.0,75,0.00,,CLR,0.00,VWS V14.01,2013-01-02 07:23:00,
2013-01-02 02:28:00,17.9,11.3,29.99,WSW,251,1.0,2.0,75,0.00,,CLR,0.00,VWS V14.01,2013-01-02 07:28:00,
2013-01-02 02:33:00,17.7,11.4,29.99,West,261,0.0,1.0,76,0.00,,CLR,0.00,VWS V14.01,2013-01-02 07:33:00,
2013-01-02 02:38:00,17.7,11.4,30.00,WSW,248,2.0,3.0,76,0.00,,CLR,0.00,VWS V14.01,2013-01-02 07:38:00,
2013-01-02 02:43:00,17.7,11.4,30.00,WNW,291,0.0,1.0,76,0.00,,CLR,0.00,VWS V14.01,2013-01-02 07:43:00,
2013-01-02 02:48:00,17.7,11.4,30.00,West,270,1.0,1.0,76,0.00,,CLR,0.00,VWS V14.01,2013-01-02 07:48:00,
2013-01-02 02:53:00,17.7,11.7,30.00,SW,226,2.0,3.0,77,0.00,,CLR,0.00,VWS V14.01,2013-01-02 07:53:00,
2013-01-02 02:58:00,17.8,11.8,30.00,WNW,290,3.0,4.0,77,0.00,,CLR,0.00,VWS V14.01,2013-01-02 07:58:00,
2013-01-02 03:03:00,17.9,12.2,30.00,West,259,2.0,3.0,78,0.00,,SCT033,0.00,VWS V14.01,2013-01-02 08:03:00,
2013-01-02 03:08:00,18.2,12.5,30.00,WNW,286,2.0,2.0,78,0.00,,SCT033,0.00,VWS V14.01,2013-01-02 08:08:00,
2013-01-02 03:13:00,18.5,13.4,30.00,WNW,290,2.0,3.0,80,0.00,,SCT033,0.00,VWS V14.01,2013-01-02 08:13:00,
2013-01-02 03:18:00,18.8,13.7,30.00,SW,229,4.0,4.0,80,0.00,,SCT033,0.00,VWS V14.01,2013-01-02 08:18:00,
2013-01-02 03:23:00,19.1,14.0,30.00,SW,223,2.0,4.0,80,0.00,,SCT033,0.00,VWS V14.01,2013-01-02 08:23:00,
2013-01-02 03:29:00,19.4,14.0,30.00,SW,229,3.0,5.0,79,0.00,,SCT033,0.00,VWS V14.01,2013-01-02 08:29:00,
2013-01-02 03:34:00,19.6,14.4,30.00,WSW,252,3.0,5.0,80,0.00,,OVC034,0.00,VWS V14.01,2013-01-02 08:34:00,
2013-01-02 03:39:00,19.5,14.4,30.00,SW,227,3.0,4.0,80,0.00,,OVC034,0.00,VWS V14.01,2013-01-02 08:39:00,
2013-01-02 03:44:00,19.4,14.5,30.00,West,270,2.0,2.0,81,0.00,,OVC034,0.00,VWS V14.01,2013-01-02 08:44:00,
2013-01-02 03:49:00,19.3,14.7,30.00,WSW,250,3.0,4.0,82,0.00,,OVC034,0.00,VWS V14.01,2013-01-02 08:49:00,
2013-01-02 03:54:00,19.2,15.2,30.00,SW,229,3.0,4.0,84,0.00,,OVC034,0.00,VWS V14.01,2013-01-02 08:54:00,
2013-01-02 03:59:00,19.1,15.1,30.00,SW,236,1.0,2.0,84,0.00,,OVC034,0.00,VWS V14.01,2013-01-02 08:59:00,
2013-01-02 04:04:00,19.0,15.2,30.00,SW,229,3.0,4.0,85,0.00,,OVC034,0.00,VWS V14.01,2013-01-02 09:04:00,
2013-01-02 04:09:00,19.0,15.2,30.00,SW,223,2.0,3.0,85,0.00,,OVC034,0.00,VWS V14.01,2013-01-02 09:09:00,
2013-01-02 04:14:00,19.0,15.5,30.00,West,273,1.0,3.0,86,0.00,,OVC034,0.00,VWS V14.01,2013-01-02 09:14:00,
2013-01-02 04:19:00,19.1,15.3,30.00,WSW,246,0.0,1.0,85,0.00,,OVC034,0.00,VWS V14.01,2013-01-02 09:19:00,
2013-01-02 04:24:00,19.1,15.6,30.00,WSW,250,1.0,2.0,86,0.00,,OVC034,0.00,VWS V14.01,2013-01-02 09:24:00,
2013-01-02 04:29:00,19.2,15.7,30.00,SW,232,1.0,2.0,86,0.00,,OVC034,0.00,VWS V14.01,2013-01-02 09:29:00,
2013-01-02 04:34:00,19.4,15.9,30.00,WSW,248,2.0,4.0,86,0.00,,SCT026,0.00,VWS V14.01,2013-01-02 09:34:00,
2013-01-02 04:39:00,19.6,16.1,30.00,WSW,245,2.0,5.0,86,0.00,,SCT026,0.00,VWS V14.01,2013-01-02 09:39:00,
2013-01-02 04:44:00,19.8,16.0,30.00,West,265,4.0,4.0,85,0.00,,SCT026,0.00,VWS V14.01,2013-01-02 09:44:00,
2013-01-02 04:49:00,20.0,16.2,30.00,SW,229,3.0,4.0,85,0.00,,SCT026,0.00,VWS V14.01,2013-01-02 09:49:00,
2013-01-02 04:54:00,20.3,16.5,30.00,WSW,253,4.0,4.0,85,0.00,,SCT026,0.00,VWS V14.01,2013-01-02 09:54:00,
2013-01-02 04:59:00,20.5,16.7,30.00,NW,306,2.0,4.0,85,0.00,,SCT026,0.00,VWS V14.01,2013-01-02 09:59:00,
2013-01-02 05:04:00,20.8,17.0,30.00,NW,304,2.0,8.0,85,0.00,,BKN037,0.00,VWS V14.01,2013-01-02 10:04:00,
2013-01-02 05:09:00,21.1,17.8,30.00,West,281,5.0,8.0,87,0.00,,BKN037,0.00,VWS V14.01,2013-01-02 10:09:00,
2013-01-02 05:14:00,21.6,18.6,30.00,NNW,331,4.0,10.0,88,0.00,,BKN037,0.00,VWS V14.01,2013-01-02 10:14:00,
2013-01-02 05:19:00,22.0,18.7,30.00,NW,306,5.0,8.0,87,0.00,,BKN037,0.00,VWS V14.01,2013-01-02 10:19:00,
2013-01-02 05:24:00,22.2,18.7,30.00,NW,319,2.0,4.0,86,0.00,,BKN037,0.00,VWS V14.01,2013-01-02 10:24:00,
2013-01-02 05:29:00,22.3,18.8,30.00,WNW,298,1.0,2.0,86,0.00,,BKN037,0.00,VWS V14.01,2013-01-02 10:29:00,
2013-01-02 05:34:00,22.4,18.6,30.00,NW,309,4.0,6.0,85,0.00,,BKN037,0.00,VWS V14.01,2013-01-02 10:34:00,
2013-01-02 05:39:00,22.5,18.1,30.00,WNW,286,3.0,3.0,83,0.00,,BKN037,0.00,VWS V14.01,2013-01-02 10:39:00,
2013-01-02 05:44:00,22.7,18.3,30.00,WNW,292,1.0,2.0,83,0.00,,BKN037,0.00,VWS V14.01,2013-01-02 10:44:00,
2013-01-02 05:49:00,22.8,18.1,30.01,WNW,289,2.0,3.0,82,0.00,,OVC034,0.00,VWS V14.01,2013-01-02 10:49:00,
2013-01-02 05:54:00,22.8,17.9,30.01,West,265,4.0,4.0,81,0.00,,OVC034,0.00,VWS V14.01,2013-01-02 10:54:00,
2013-01-02 05:59:00,23.0,17.8,30.01,NW,314,4.0,5.0,80,0.00,,OVC034,0.00,VWS V14.01,2013-01-02 10:59:00,
2013-01-02 06:04:00,23.1,17.3,30.01,WNW,296,4.0,7.0,78,0.00,,OVC033,0.00,VWS V14.01,2013-01-02 11:04:00,
2013-01-02 06:09:00,23.2,17.4,30.02,West,277,5.0,5.0,78,0.00,,OVC033,0.00,VWS V14.01,2013-01-02 11:09:00,
2013-01-02 06:14:00,23.3,17.5,30.02,West,277,3.0,3.0,78,0.00,,OVC033,0.00,VWS V14.01,2013-01-02 11:14:00,
2013-01-02 06:19:00,23.3,17.5,30.02,West,280,7.0,7.0,78,0.00,,OVC033,0.00,VWS V14.01,2013-01-02 11:19:00,
2013-01-02 06:24:00,23.4,17.3,30.02,WNW,298,4.0,6.0,77,0.00,,OVC033,0.00,VWS V14.01,2013-01-02 11:24:00,
2013-01-02 06:29:00,23.4,17.3,30.02,WNW,294,4.0,8.0,77,0.00,,OVC033,0.00,VWS V14.01,2013-01-02 11:29:00,
2013-01-02 06:34:00,23.4,17.0,30.03,West,275,3.0,6.0,76,0.00,,OVC033,0.00,VWS V14.01,2013-01-02 11:34:00,
2013-01-02 06:39:00,23.4,17.3,30.03,NW,304,1.0,2.0,77,0.00,,OVC033,0.00,VWS V14.01,2013-01-02 11:39:00,
2013-01-02 06:44:00,23.4,17.3,30.02,NNW,338,3.0,4.0,77,0.00,,OVC033,0.00,VWS V14.01,2013-01-02 11:44:00,
2013-01-02 06:49:00,23.4,17.3,30.02,NW,323,2.0,2.0,77,0.00,,OVC033,0.00,VWS V14.01,2013-01-02 11:49:00,
2013-01-02 06:54:00,23.3,17.2,30.02,NW,321,1.0,3.0,77,0.00,,OVC033,0.00,VWS V14.01,2013-01-02 11:54:00,
2013-01-02 06:59:00,23.3,17.2,30.03,WNW,283,2.0,7.0,77,0.00,,OVC033,0.00,VWS V14.01,2013-01-02 11:59:00,
2013-01-02 07:04:00,23.4,17.6,30.03,West,273,2.0,3.0,78,0.00,,OVC028,0.00,VWS V14.01,2013-01-02 12:04:00,
2013-01-02 07:09:00,23.3,17.8,30.03,NW,319,1.0,2.0,79,0.00,,OVC028,0.00,VWS V14.01,2013-01-02 12:09:00,
2013-01-02 07:15:00,23.3,17.8,30.03,WNW,299,0.0,4.0,79,0.00,,OVC028,0.00,VWS V14.01,2013-01-02 12:15:00,
2013-01-02 07:20:00,23.3,17.8,30.03,WNW,286,1.0,3.0,79,0.00,,OVC030,0.00,VWS V14.01,2013-01-02 12:20:00,
2013-01-02 07:25:00,23.3,17.8,30.03,NW,321,2.0,4.0,79,0.00,,OVC030,0.00,VWS V14.01,2013-01-02 12:25:00,
2013-01-02 07:30:00,23.4,17.9,30.03,West,271,1.0,2.0,79,0.00,,OVC030,0.00,VWS V14.01,2013-01-02 12:30:00,
2013-01-02 07:35:00,23.4,18.1,30.04,NNW,333,2.0,2.0,80,0.00,,OVC030,0.00,VWS V14.01,2013-01-02 12:35:00,
2013-01-02 07:40:00,23.4,18.1,30.04,WNW,286,1.0,2.0,80,0.00,,OVC030,0.00,VWS V14.01,2013-01-02 12:40:00,
2013-01-02 07:45:00,23.4,18.4,30.04,West,277,0.0,2.0,81,0.00,,OVC030,0.00,VWS V14.01,2013-01-02 12:45:00,
2013-01-02 07:50:00,23.5,19.1,30.04,WNW,300,2.0,4.0,83,0.00,,OVC030,0.00,VWS V14.01,2013-01-02 12:50:00,
2013-01-02 07:55:00,23.6,19.2,30.04,NW,321,4.0,6.0,83,0.00,,OVC030,0.00,VWS V14.01,2013-01-02 12:55:00,
2013-01-02 08:00:00,23.7,19.6,30.04,NW,322,1.0,3.0,84,0.00,,OVC030,0.00,VWS V14.01,2013-01-02 13:00:00,
2013-01-02 08:05:00,23.8,19.4,30.04,NNW,327,5.0,7.0,83,0.00,,OVC030,0.00,VWS V14.01,2013-01-02 13:05:00,
2013-01-02 08:10:00,23.8,19.4,30.04,NW,315,3.0,3.0,83,0.00,,OVC030,0.00,VWS V14.01,2013-01-02 13:10:00,
2013-01-02 08:15:00,23.9,19.5,30.04,NNW,335,7.0,8.0,83,0.00,,OVC030,0.00,VWS V14.01,2013-01-02 13:15:00,
2013-01-02 08:20:00,23.9,19.5,30.05,NNW,335,3.0,5.0,83,0.00,,OVC028,0.00,VWS V14.01,2013-01-02 13:20:00,
2013-01-02 08:25:00,23.9,19.5,30.05,NW,319,5.0,7.0,83,0.00,,OVC028,0.00,VWS V14.01,2013-01-02 13:25:00,
2013-01-02 08:30:00,23.9,19.8,30.05,North,352,7.0,10.0,84,0.00,,OVC028,0.00,VWS V14.01,2013-01-02 13:30:00,
2013-01-02 08:35:00,23.7,19.9,30.05,North,357,3.0,4.0,85,0.00,,OVC028,0.00,VWS V14.01,2013-01-02 13:35:00,
2013-01-02 08:40:00,23.5,19.7,30.06,North,7,3.0,4.0,85,0.00,,OVC028,0.00,VWS V14.01,2013-01-02 13:40:00,
2013-01-02 08:45:00,23.3,19.5,30.06,NNW,340,3.0,5.0,85,0.00,,OVC028,0.00,VWS V14.01,2013-01-02 13:45:00,
2013-01-02 08:50:00,23.2,19.4,30.05,North,7,8.0,8.0,85,0.00,,OVC028,0.00,VWS V14.01,2013-01-02 13:50:00,
2013-01-02 08:55:00,23.1,19.5,30.06,NNE,15,3.0,5.0,86,0.00,,OVC028,0.00,VWS V14.01,2013-01-02 13:55:00,
2013-01-02 09:00:00,23.0,19.5,30.06,NNE,24,3.0,5.0,86,0.00,,OVC028,0.00,VWS V14.01,2013-01-02 14:00:00,
2013-01-02 09:05:00,23.0,19.5,30.06,NNW,342,4.0,7.0,86,0.00,,OVC022,0.00,VWS V14.01,2013-01-02 14:05:00,
2013-01-02 09:10:00,22.9,19.4,30.06,NNE,12,9.0,9.0,86,0.00,,OVC022,0.00,VWS V14.01,2013-01-02 14:10:00,
2013-01-02 09:15:00,22.9,19.4,30.07,NNE,15,3.0,4.0,86,0.00,,OVC022,0.00,VWS V14.01,2013-01-02 14:15:00,
2013-01-02 09:20:00,22.8,19.2,30.07,North,357,5.0,7.0,86,0.00,,OVC022,0.00,VWS V14.01,2013-01-02 14:20:00,
2013-01-02 09:25:00,22.7,19.1,30.07,NNW,337,3.0,4.0,86,0.00,,OVC022,0.00,VWS V14.01,2013-01-02 14:25:00,
2013-01-02 09:30:00,22.7,19.1,30.07,North,2,2.0,3.0,86,0.00,,OVC022,0.00,VWS V14.01,2013-01-02 14:30:00,
2013-01-02 09:35:00,22.7,19.1,30.07,North,357,3.0,4.0,86,0.00,,OVC022,0.00,VWS V14.01,2013-01-02 14:35:00,
2013-01-02 09:40:00,22.7,19.1,30.07,North,357,3.0,3.0,86,0.00,,OVC022,0.00,VWS V14.01,2013-01-02 14:40:00,
2013-01-02 09:45:00,22.7,19.1,30.07,North,2,4.0,5.0,86,0.00,,OVC022,0.00,VWS V14.01,2013-01-02 14:45:00,
2013-01-02 09:50:00,22.7,19.1,30.07,North,357,4.0,7.0,86,0.00,,,0.00,VWS V14.01,2013-01-02 14:50:00,
2013-01-02 09:55:00,22.8,19.5,30.08,NNW,342,4.0,4.0,87,0.00,,,0.00,VWS V14.01,2013-01-02 14:55:00,
2013-01-02 10:00:00,22.8,19.2,30.08,NNE,15,1.0,2.0,86,0.00,,,0.00,VWS V14.01,2013-01-02 15:00:00,
2013-01-02 10:05:00,22.8,19.2,30.08,NNW,344,1.0,3.0,86,0.00,,,0.00,VWS V14.01,2013-01-02 15:05:00,
2013-01-02 10:10:00,22.9,19.4,30.08,North,357,4.0,6.0,86,0.00,,,0.00,VWS V14.01,2013-01-02 15:10:00,
2013-01-02 10:15:00,22.9,19.4,30.09,North,7,1.0,2.0,86,0.00,,,0.00,VWS V14.01,2013-01-02 15:15:00,
2013-01-02 10:20:00,23.0,19.5,30.08,North,2,4.0,5.0,86,0.00,,,0.00,VWS V14.01,2013-01-02 15:20:00,
2013-01-02 10:25:00,22.9,19.4,30.09,North,357,2.0,3.0,86,0.00,,,0.00,VWS V14.01,2013-01-02 15:25:00,
2013-01-02 10:30:00,23.0,19.5,30.09,NNE,21,3.0,4.0,86,0.00,,,0.00,VWS V14.01,2013-01-02 15:30:00,
2013-01-02 10:35:00,23.1,19.8,30.09,NNE,21,1.0,2.0,87,0.00,,,0.00,VWS V14.01,2013-01-02 15:35:00,
2013-01-02 10:40:00,23.1,19.8,30.09,NNE,24,2.0,3.0,87,0.00,,,0.00,VWS V14.01,2013-01-02 15:40:00,
2013-01-02 10:45:00,23.2,19.6,30.09,NE,38,3.0,3.0,86,0.00,,,0.00,VWS V14.01,2013-01-02 15:45:00,
2013-01-02 10:50:00,23.2,19.6,30.09,NE,38,3.0,3.0,86,0.00,,,0.00,VWS V14.01,2013-01-02 15:50:00,
2013-01-02 10:55:00,23.2,19.9,30.09,NNE,19,2.0,3.0,87,0.00,,,0.00,VWS V14.01,2013-01-02 15:55:00,
2013-01-02 11:00:00,23.3,20.0,30.10,NNE,23,3.0,3.0,87,0.00,,,0.00,VWS V14.01,2013-01-02 16:00:00,
2013-01-02 11:05:00,23.4,19.8,30.10,NE,42,3.0,3.0,86,0.00,,,0.00,VWS V14.01,2013-01-02 16:05:00,
2013-01-02 11:10:00,23.4,19.8,30.10,NE,41,3.0,4.0,86,0.00,,,0.00,VWS V14.01,2013-01-02 16:10:00,
2013-01-02 11:15:00,23.4,19.8,30.10,NE,34,2.0,2.0,86,0.00,,,0.00,VWS V14.01,2013-01-02 16:15:00,
2013-01-02 11:20:00,23.5,19.9,30.09,NNE,19,5.0,5.0,86,0.00,,,0.00,VWS V14.01,2013-01-02 16:20:00,
2013-01-02 11:25:00,23.6,20.0,30.09,NNE,14,1.0,2.0,86,0.00,,,0.00,VWS V14.01,2013-01-02 16:25:00,
2013-01-02 11:30:00,23.7,20.1,30.09,NNE,18,1.0,1.0,86,0.00,,,0.00,VWS V14.01,2013-01-02 16:30:00,
2013-01-02 11:35:00,23.8,20.2,30.10,NNE,31,2.0,2.0,86,0.00,,,0.00,VWS V14.01,2013-01-02 16:35:00,
2013-01-02 11:40:00,23.9,20.3,30.10,NNE,13,2.0,2.0,86,0.00,,,0.00,VWS V14.01,2013-01-02 16:40:00,
2013-01-02 11:45:00,23.9,20.3,30.10,NNE,13,0.0,1.0,86,0.00,,,0.00,VWS V14.01,2013-01-02 16:45:00,
2013-01-02 11:50:00,23.9,20.3,30.09,NNE,14,1.0,2.0,86,0.00,,,0.00,VWS V14.01,2013-01-02 16:50:00,
2013-01-02 11:55:00,24.0,20.4,30.09,NNE,21,1.0,1.0,86,0.00,,,0.00,VWS V14.01,2013-01-02 16:55:00,
2013-01-02 12:00:00,24.1,20.5,30.09,NE,37,1.0,2.0,86,0.00,,,0.00,VWS V14.01,2013-01-02 17:00:00,
2013-01-02 12:05:00,23.7,20.1,30.09,NE,50,3.0,3.0,86,0.00,,,0.00,VWS V14.01,2013-01-02 17:05:00,
2013-01-02 12:10:00,23.4,19.8,30.09,NE,51,2.0,3.0,86,0.00,,,0.00,VWS V14.01,2013-01-02 17:10:00,
2013-01-02 12:15:00,23.4,19.8,30.09,NE,51,1.0,2.0,86,0.00,,,0.00,VWS V14.01,2013-01-02 17:15:00,
2013-01-02 12:20:00,23.4,19.8,30.09,NE,51,1.0,1.0,86,0.00,,,0.00,VWS V14.01,2013-01-02 17:20:00,
2013-01-02 12:26:00,23.5,19.9,30.09,NE,51,0.0,0.0,86,0.00,,,0.00,VWS V14.01,2013-01-02 17:26:00,
2013-01-02 12:31:00,23.5,19.9,30.09,NE,51,0.0,0.0,86,0.00,,,0.00,VWS V14.01,2013-01-02 17:31:00,
2013-01-02 12:36:00,23.6,20.0,30.09,NE,51,1.0,2.0,86,0.00,,,0.00,VWS V14.01,2013-01-02 17:36:00,
2013-01-02 12:41:00,23.6,20.0,30.09,East,92,6.0,6.0,86,0.00,,,0.00,VWS V14.01,2013-01-02 17:41:00,
2013-01-02 12:46:00,23.7,20.1,30.09,East,93,5.0,5.0,86,0.00,,,0.00,VWS V14.01,2013-01-02 17:46:00,
2013-01-02 12:51:00,23.6,20.0,30.09,ESE,119,4.0,5.0,86,0.00,,,0.00,VWS V14.01,2013-01-02 17:51:00,
2013-01-02 12:58:00,23.4,19.8,30.09,East,92,5.0,5.0,86,0.00,,,0.00,VWS V14.01,2013-01-02 17:58:00,
2013-01-02 13:03:00,23.2,19.9,30.09,SE,126,3.0,5.0,87,0.00,,,0.00,VWS V14.01,2013-01-02 18:03:00,
2013-01-02 13:08:00,23.1,19.8,30.09,SSE,149,4.0,4.0,87,0.00,,,0.00,VWS V14.01,2013-01-02 18:08:00,
2013-01-02 13:13:00,23.1,19.8,30.09,SE,132,3.0,7.0,87,0.00,,,0.00,VWS V14.01,2013-01-02 18:13:00,
2013-01-02 13:18:00,23.0,19.7,30.09,ESE,119,5.0,5.0,87,0.00,,,0.00,VWS V14.01,2013-01-02 18:18:00,
2013-01-02 13:23:00,23.0,19.7,30.09,SE,139,2.0,3.0,87,0.00,,,0.00,VWS V14.01,2013-01-02 18:23:00,
2013-01-02 13:28:00,23.0,19.7,30.08,SE,145,3.0,5.0,87,0.00,,,0.00,VWS V14.01,2013-01-02 18:28:00,
2013-01-02 13:33:00,23.0,19.7,30.08,SE,137,3.0,5.0,87,0.00,,,0.00,VWS V14.01,2013-01-02 18:33:00,
2013-01-02 13:38:00,23.0,19.7,30.08,ESE,118,3.0,5.0,87,0.00,,,0.00,VWS V14.01,2013-01-02 18:38:00,
2013-01-02 13:43:00,22.9,19.6,30.08,SE,125,4.0,6.0,87,0.00,,,0.00,VWS V14.01,2013-01-02 18:43:00,
2013-01-02 13:48:00,22.9,19.9,30.08,ESE,118,6.0,6.0,88,0.00,,,0.00,VWS V14.01,2013-01-02 18:48:00,
2013-01-02 13:53:00,22.8,19.8,30.08,ESE,120,3.0,6.0,88,0.00,,,0.00,VWS V14.01,2013-01-02 18:53:00,
2013-01-02 13:58:00,22.8,19.8,30.08,ESE,123,6.0,6.0,88,0.00,,,0.00,VWS V14.01,2013-01-02 18:58:00,
2013-01-02 14:03:00,22.9,19.9,30.08,SE,127,4.0,7.0,88,0.00,,,0.00,VWS V14.01,2013-01-02 19:03:00,
2013-01-02 14:08:00,22.9,19.9,30.08,SE,133,5.0,8.0,88,0.00,,,0.00,VWS V14.01,2013-01-02 19:08:00,
2013-01-02 14:13:00,22.9,19.9,30.08,SE,140,3.0,3.0,88,0.00,,,0.00,VWS V14.01,2013-01-02 19:13:00,
2013-01-02 14:18:00,23.0,20.0,30.08,SE,133,4.0,6.0,88,0.00,,,0.00,VWS V14.01,2013-01-02 19:18:00,
2013-01-02 14:23:00,23.0,20.0,30.08,SE,131,2.0,6.0,88,0.00,,,0.00,VWS V14.01,2013-01-02 19:23:00,
2013-01-02 14:29:00,23.0,20.0,30.08,SE,137,3.0,4.0,88,0.00,,,0.00,VWS V14.01,2013-01-02 19:29:00,
2013-01-02 14:34:00,23.1,20.1,30.08,SE,141,2.0,3.0,88,0.00,,,0.00,VWS V14.01,2013-01-02 19:34:00,
2013-01-02 14:39:00,23.1,20.4,30.08,SE,141,3.0,3.0,89,0.00,,,0.00,VWS V14.01,2013-01-02 19:39:00,
2013-01-02 14:44:00,23.2,20.5,30.09,SE,140,4.0,5.0,89,0.00,,,0.00,VWS V14.01,2013-01-02 19:44:00,
2013-01-02 14:49:00,23.3,20.3,30.09,SE,143,3.0,4.0,88,0.00,,,0.00,VWS V14.01,2013-01-02 19:49:00,
2013-01-02 14:54:00,23.3,20.3,30.09,SE,145,3.0,4.0,88,0.00,,,0.00,VWS V14.01,2013-01-02 19:54:00,
2013-01-02 14:59:00,23.3,20.3,30.09,SE,130,3.0,4.0,88,0.00,,,0.00,VWS V14.01,2013-01-02 19:59:00,
2013-01-02 15:04:00,23.3,20.3,30.08,SSE,158,4.0,4.0,88,0.00,,,0.00,VWS V14.01,2013-01-02 20:04:00,
2013-01-02 15:09:00,23.3,20.3,30.09,SSE,154,4.0,4.0,88,0.00,,,0.00,VWS V14.01,2013-01-02 20:09:00,
2013-01-02 15:14:00,23.3,20.3,30.08,SE,141,4.0,5.0,88,0.00,,,0.00,VWS V14.01,2013-01-02 20:14:00,
2013-01-02 15:19:00,23.3,20.3,30.09,SE,129,3.0,3.0,88,0.00,,,0.00,VWS V14.01,2013-01-02 20:19:00,
2013-01-02 15:24:00,23.3,20.3,30.09,ESE,106,5.0,8.0,88,0.00,,,0.00,VWS V14.01,2013-01-02 20:24:00,
2013-01-02 15:29:00,23.3,20.3,30.09,SE,136,2.0,2.0,88,0.00,,,0.00,VWS V14.01,2013-01-02 20:29:00,
2013-01-02 15:34:00,23.3,20.3,30.09,SE,125,4.0,7.0,88,0.00,,,0.00,VWS V14.01,2013-01-02 20:34:00,
2013-01-02 15:39:00,23.3,20.3,30.09,SE,128,3.0,5.0,88,0.00,,,0.00,VWS V14.01,2013-01-02 20:39:00,
2013-01-02 15:44:00,23.3,20.3,30.09,SE,124,5.0,5.0,88,0.00,,,0.00,VWS V14.01,2013-01-02 20:44:00,
2013-01-02 15:49:00,23.3,20.3,30.09,SE,124,3.0,3.0,88,0.00,,,0.00,VWS V14.01,2013-01-02 20:49:00,
2013-01-02 15:54:00,23.3,20.3,30.09,SE,142,2.0,3.0,88,0.00,,,0.00,VWS V14.01,2013-01-02 20:54:00,
2013-01-02 15:59:00,23.4,20.4,30.09,SE,134,4.0,4.0,88,0.00,,,0.00,VWS V14.01,2013-01-02 20:59:00,
2013-01-02 16:04:00,23.4,20.4,30.09,SE,125,5.0,5.0,88,0.00,,,0.00,VWS V14.01,2013-01-02 21:04:00,
2013-01-02 16:09:00,23.3,20.3,30.09,SE,144,4.0,5.0,88,0.00,,,0.00,VWS V14.01,2013-01-02 21:09:00,
2013-01-02 16:14:00,23.4,20.4,30.09,SE,139,1.0,4.0,88,0.00,,,0.00,VWS V14.01,2013-01-02 21:14:00,
2013-01-02 16:19:00,23.4,20.4,30.09,SE,140,4.0,4.0,88,0.00,,,0.00,VWS V14.01,2013-01-02 21:19:00,
2013-01-02 16:24:00,23.4,20.4,30.09,SE,135,4.0,5.0,88,0.00,,,0.00,VWS V14.01,2013-01-02 21:24:00,
2013-01-02 16:29:00,23.4,20.4,30.09,SE,138,5.0,6.0,88,0.00,,,0.00,VWS V14.01,2013-01-02 21:29:00,
2013-01-02 16:34:00,23.4,20.4,30.09,SE,136,3.0,3.0,88,0.00,,,0.00,VWS V14.01,2013-01-02 21:34:00,
2013-01-02 16:39:00,23.4,20.4,30.09,SE,145,3.0,4.0,88,0.00,,,0.00,VWS V14.01,2013-01-02 21:39:00,
2013-01-02 16:44:00,23.4,20.4,30.09,SE,136,1.0,2.0,88,0.00,,,0.00,VWS V14.01,2013-01-02 21:44:00,
2013-01-02 16:49:00,23.3,20.3,30.09,SE,145,3.0,4.0,88,0.00,,,0.00,VWS V14.01,2013-01-02 21:49:00,
2013-01-02 16:54:00,23.3,20.3,30.09,South,190,4.0,5.0,88,0.00,,,0.00,VWS V14.01,2013-01-02 21:54:00,
2013-01-02 16:59:00,23.3,20.3,30.09,SE,137,1.0,2.0,88,0.00,,,0.00,VWS V14.01,2013-01-02 21:59:00,
2013-01-02 17:04:00,23.2,20.2,30.09,SE,132,2.0,5.0,88,0.00,,,0.00,VWS V14.01,2013-01-02 22:04:00,
2013-01-02 17:09:00,23.2,20.2,30.09,ESE,118,3.0,4.0,88,0.00,,,0.00,VWS V14.01,2013-01-02 22:09:00,
2013-01-02 17:14:00,23.2,20.2,30.09,SE,134,2.0,3.0,88,0.00,,,0.00,VWS V14.01,2013-01-02 22:14:00,
2013-01-02 17:19:00,23.2,20.5,30.09,SE,132,4.0,4.0,89,0.00,,,0.00,VWS V14.01,2013-01-02 22:19:00,
2013-01-02 17:24:00,23.2,20.5,30.09,South,188,2.0,4.0,89,0.00,,,0.00,VWS V14.01,2013-01-02 22:24:00,
2013-01-02 17:29:00,23.2,20.5,30.10,SSE,159,1.0,4.0,89,0.00,,,0.00,VWS V14.01,2013-01-02 22:29:00,
2013-01-02 17:34:00,23.3,20.5,30.09,ESE,117,5.0,7.0,89,0.00,,,0.00,VWS V14.01,2013-01-02 22:34:00,
2013-01-02 17:39:00,23.3,20.5,30.09,SE,131,5.0,6.0,89,0.00,,,0.00,VWS V14.01,2013-01-02 22:39:00,
2013-01-02 17:44:00,23.3,20.5,30.10,ESE,122,2.0,5.0,89,0.00,,,0.00,VWS V14.01,2013-01-02 22:44:00,
2013-01-02 17:49:00,23.3,20.8,30.10,SE,134,5.0,5.0,90,0.00,,,0.00,VWS V14.01,2013-01-02 22:49:00,
2013-01-02 17:54:00,23.4,20.9,30.10,SE,125,2.0,3.0,90,0.00,,,0.00,VWS V14.01,2013-01-02 22:54:00,
2013-01-02 17:59:00,23.3,20.8,30.10,SE,135,3.0,3.0,90,0.00,,,0.00,VWS V14.01,2013-01-02 22:59:00,
2013-01-02 18:05:00,23.4,20.9,30.10,SE,131,5.0,7.0,90,0.00,,,0.00,VWS V14.01,2013-01-02 23:05:00,
2013-01-02 18:10:00,23.4,20.9,30.10,SE,130,3.0,3.0,90,0.00,,,0.00,VWS V14.01,2013-01-02 23:10:00,
2013-01-02 18:15:00,23.4,20.9,30.10,SE,138,3.0,5.0,90,0.00,,,0.00,VWS V14.01,2013-01-02 23:15:00,
2013-01-02 18:20:00,23.5,21.0,30.10,ESE,119,4.0,4.0,90,0.00,,,0.00,VWS V14.01,2013-01-02 23:20:00,
2013-01-02 18:25:00,23.5,21.0,30.10,SSE,148,2.0,4.0,90,0.00,,,0.00,VWS V14.01,2013-01-02 23:25:00,
2013-01-02 18:30:00,23.5,20.7,30.10,ESE,115,3.0,5.0,89,0.00,,,0.00,VWS V14.01,2013-01-02 23:30:00,
2013-01-02 18:35:00,23.6,20.8,30.10,SE,140,4.0,4.0,89,0.00,,,0.00,VWS V14.01,2013-01-02 23:35:00,
2013-01-02 18:40:00,23.6,20.8,30.10,SE,127,5.0,7.0,89,0.00,,,0.00,VWS V14.01,2013-01-02 23:40:00,
2013-01-02 18:45:00,23.7,20.9,30.10,SE,133,2.0,3.0,89,0.00,,,0.00,VWS V14.01,2013-01-02 23:45:00,
2013-01-02 18:50:00,23.7,20.9,30.10,ESE,122,1.0,2.0,89,0.00,,,0.00,VWS V14.01,2013-01-02 23:50:00,
2013-01-02 18:55:00,23.7,20.9,30.10,SSW,209,3.0,4.0,89,0.00,,,0.00,VWS V14.01,2013-01-02 23:55:00,
2013-01-02 19:00:00,23.7,20.9,30.10,SSW,209,2.0,6.0,89,0.00,,,0.00,VWS V14.01,2013-01-03 00:00:00,
2013-01-02 19:05:00,23.8,21.0,30.10,SW,218,2.0,4.0,89,0.00,,OVC021,0.00,VWS V14.01,2013-01-03 00:05:00,
2013-01-02 19:10:00,23.9,21.1,30.09,SSE,168,1.0,3.0,89,0.00,,OVC021,0.00,VWS V14.01,2013-01-03 00:10:00,
2013-01-02 19:15:00,23.9,20.9,30.09,SE,142,2.0,4.0,88,0.00,,OVC021,0.00,VWS V14.01,2013-01-03 00:15:00,
2013-01-02 19:20:00,24.0,21.0,30.09,SSW,200,3.0,4.0,88,0.00,,OVC021,0.00,VWS V14.01,2013-01-03 00:20:00,
2013-01-02 19:25:00,23.9,20.9,30.09,South,189,3.0,3.0,88,0.00,,OVC021,0.00,VWS V14.01,2013-01-03 00:25:00,
2013-01-02 19:30:00,24.0,21.0,30.09,SSW,208,6.0,7.0,88,0.00,,OVC021,0.00,VWS V14.01,2013-01-03 00:30:00,
2013-01-02 19:35:00,24.0,21.0,30.09,SW,230,7.0,9.0,88,0.00,,OVC021,0.00,VWS V14.01,2013-01-03 00:35:00,
2013-01-02 19:40:00,24.2,20.9,30.09,SW,221,5.0,7.0,87,0.00,,OVC021,0.00,VWS V14.01,2013-01-03 00:40:00,
2013-01-02 19:45:00,24.2,20.6,30.09,SW,215,4.0,5.0,86,0.00,,OVC021,0.00,VWS V14.01,2013-01-03 00:45:00,
2013-01-02 19:50:00,24.3,20.7,30.10,SW,235,4.0,5.0,86,0.00,,OVC021,0.00,VWS V14.01,2013-01-03 00:50:00,
2013-01-02 19:55:00,24.4,20.5,30.09,SSW,200,2.0,2.0,85,0.00,,OVC021,0.00,VWS V14.01,2013-01-03 00:55:00,
2013-01-02 20:00:00,24.4,20.5,30.10,SW,218,4.0,6.0,85,0.00,,OVC021,0.00,VWS V14.01,2013-01-03 01:00:00,
2013-01-02 20:05:00,24.4,20.3,30.10,SW,221,3.0,6.0,84,0.00,,OVC021,0.00,VWS V14.01,2013-01-03 01:05:00,
2013-01-02 20:10:00,24.4,20.3,30.10,SSW,200,5.0,7.0,84,0.00,,OVC021,0.00,VWS V14.01,2013-01-03 01:10:00,
2013-01-02 20:15:00,24.4,20.3,30.10,SSW,209,3.0,5.0,84,0.00,,OVC021,0.00,VWS V14.01,2013-01-03 01:15:00,
2013-01-02 20:20:00,24.4,20.3,30.10,South,177,7.0,9.0,84,0.00,,OVC021,0.00,VWS V14.01,2013-01-03 01:20:00,
2013-01-02 20:25:00,24.4,20.3,30.10,SW,220,5.0,5.0,84,0.00,,OVC021,0.00,VWS V14.01,2013-01-03 01:25:00,
2013-01-02 20:30:00,24.3,20.2,30.10,SSW,203,4.0,6.0,84,0.00,,OVC021,0.00,VWS V14.01,2013-01-03 01:30:00,
2013-01-02 20:35:00,24.3,20.2,30.10,SW,227,3.0,4.0,84,0.00,,OVC021,0.00,VWS V14.01,2013-01-03 01:35:00,
2013-01-02 20:40:00,24.2,20.1,30.09,SW,225,4.0,5.0,84,0.00,,OVC021,0.00,VWS V14.01,2013-01-03 01:40:00,
2013-01-02 20:45:00,24.2,20.1,30.09,SSW,200,9.0,9.0,84,0.00,,OVC021,0.00,VWS V14.01,2013-01-03 01:45:00,
2013-01-02 20:50:00,24.1,20.0,30.09,SW,229,4.0,5.0,84,0.00,,OVC021,0.00,VWS V14.01,2013-01-03 01:50:00,
2013-01-02 20:55:00,24.0,19.9,30.09,WSW,242,5.0,5.0,84,0.00,,OVC021,0.00,VWS V14.01,2013-01-03 01:55:00,
2013-01-02 21:00:00,24.0,19.6,30.08,SW,222,5.0,6.0,83,0.00,,OVC021,0.00,VWS V14.01,2013-01-03 02:00:00,
2013-01-02 21:05:00,23.9,19.5,30.08,SE,145,8.0,10.0,83,0.00,,OVC027,0.00,VWS V14.01,2013-01-03 02:05:00,
2013-01-02 21:10:00,23.9,19.5,30.08,SW,227,7.0,7.0,83,0.00,,OVC027,0.00,VWS V14.01,2013-01-03 02:10:00,
2013-01-02 21:15:00,23.8,19.1,30.08,SW,230,4.0,5.0,82,0.00,,OVC027,0.00,VWS V14.01,2013-01-03 02:15:00,
2013-01-02 21:20:00,23.8,19.1,30.08,SW,221,3.0,6.0,82,0.00,,OVC027,0.00,VWS V14.01,2013-01-03 02:20:00,
2013-01-02 21:26:00,23.7,19.0,30.08,SW,234,4.0,5.0,82,0.00,,OVC027,0.00,VWS V14.01,2013-01-03 02:26:00,
2013-01-02 21:31:00,23.6,18.6,30.08,ESE,122,3.0,6.0,81,0.00,,OVC027,0.00,VWS V14.01,2013-01-03 02:31:00,
2013-01-02 21:36:00,23.6,18.6,30.08,SW,221,3.0,8.0,81,0.00,,OVC027,0.00,VWS V14.01,2013-01-03 02:36:00,
2013-01-02 21:41:00,23.6,18.6,30.08,SW,216,3.0,6.0,81,0.00,,OVC027,0.00,VWS V14.01,2013-01-03 02:41:00,
2013-01-02 21:46:00,23.5,18.5,30.08,SSW,198,3.0,4.0,81,0.00,,OVC027,0.00,VWS V14.01,2013-01-03 02:46:00,
2013-01-02 21:51:00,23.5,18.2,30.08,SSW,196,3.0,6.0,80,0.00,,OVC027,0.00,VWS V14.01,2013-01-03 02:51:00,
2013-01-02 21:56:00,23.5,18.5,30.08,SW,229,6.0,8.0,81,0.00,,OVC027,0.00,VWS V14.01,2013-01-03 02:56:00,
2013-01-02 22:01:00,23.4,18.4,30.08,SSW,213,2.0,6.0,81,0.00,,OVC027,0.00,VWS V14.01,2013-01-03 03:01:00,
2013-01-02 22:06:00,23.4,18.4,30.08,SSW,200,4.0,6.0,81,0.00,,OVC021,0.00,VWS V14.01,2013-01-03 03:06:00,
2013-01-02 22:11:00,23.4,18.4,30.08,SW,219,4.0,5.0,81,0.00,,OVC021,0.00,VWS V14.01,2013-01-03 03:11:00,
2013-01-02 22:16:00,23.4,18.4,30.08,SSE,168,3.0,8.0,81,0.00,,OVC021,0.00,VWS V14.01,2013-01-03 03:16:00,
2013-01-02 22:21:00,23.4,18.4,30.08,SW,215,5.0,7.0,81,0.00,,OVC021,0.00,VWS V14.01,2013-01-03 03:21:00,
2013-01-02 22:26:00,23.4,18.7,30.08,SSE,152,3.0,3.0,82,0.00,,OVC021,0.00,VWS V14.01,2013-01-03 03:26:00,
2013-01-02 22:31:00,23.3,18.6,30.08,SW,231,2.0,2.0,82,0.00,,OVC021,0.00,VWS V14.01,2013-01-03 03:31:00,
2013-01-02 22:37:00,23.3,18.6,30.08,SSW,194,5.0,8.0,82,0.00,,OVC021,0.00,VWS V14.01,2013-01-03 03:37:00,
2013-01-02 22:42:00,23.3,18.6,30.08,SSE,168,0.0,3.0,82,0.00,,OVC021,0.00,VWS V14.01,2013-01-03 03:42:00,
2013-01-02 22:47:00,23.3,18.6,30.08,South,176,2.0,3.0,82,0.00,,OVC021,0.00,VWS V14.01,2013-01-03 03:47:00,
2013-01-02 22:52:00,23.2,18.8,30.08,SE,145,3.0,4.0,83,0.00,,OVC021,0.00,VWS V14.01,2013-01-03 03:52:00,
2013-01-02 22:57:00,23.2,18.8,30.08,SSE,161,4.0,6.0,83,0.00,,OVC021,0.00,VWS V14.01,2013-01-03 03:57:00,
2013-01-02 23:02:00,23.2,18.8,30.08,SSE,163,2.0,2.0,83,0.00,,OVC023,0.00,VWS V14.01,2013-01-03 04:02:00,
2013-01-02 23:07:00,23.2,19.1,30.07,SE,128,0.0,1.0,84,0.00,,OVC023,0.00,VWS V14.01,2013-01-03 04:07:00,
2013-01-02 23:12:00,23.2,19.1,30.07,SE,141,2.0,4.0,84,0.00,,OVC023,0.00,VWS V14.01,2013-01-03 04:12:00,
2013-01-02 23:17:00,23.2,19.1,30.07,ESE,115,4.0,4.0,84,0.00,,OVC023,0.00,VWS V14.01,2013-01-03 04:17:00,
2013-01-02 23:22:00,23.2,19.1,30.07,SE,136,3.0,8.0,84,0.00,,OVC023,0.00,VWS V14.01,2013-01-03 04:22:00,
2013-01-02 23:27:00,23.3,19.2,30.07,SE,130,3.0,3.0,84,0.00,,OVC023,0.00,VWS V14.01,2013-01-03 04:27:00,
2013-01-02 23:32:00,23.3,19.2,30.07,ESE,111,3.0,3.0,84,0.00,,OVC023,0.00,VWS V14.01,2013-01-03 04:32:00,
2013-01-02 23:37:00,23.3,19.2,30.07,SE,137,3.0,5.0,84,0.00,,OVC023,0.00,VWS V14.01,2013-01-03 04:37:00,
2013-01-02 23:42:00,23.3,19.5,30.07,South,173,2.0,6.0,85,0.00,,OVC023,0.00,VWS V14.01,2013-01-03 04:42:00,
2013-01-02 23:47:00,23.3,19.5,30.07,ESE,103,2.0,4.0,85,0.00,,OVC023,0.00,VWS V14.01,2013-01-03 04:47:00,
2013-01-02 23:52:00,23.3,19.5,30.07,SW,225,3.0,3.0,85,0.00,,OVC023,0.00,VWS V14.01,2013-01-03 04:52:00,
2013-01-02 23:57:00,23.3,19.5,30.07,SE,146,3.0,6.0,85,0.00,,OVC023,0.00,VWS V14.01,2013-01-03 04:57:00,